Weather Roundup
Issued by NWS

Home | Current Version | Previous Version | Text Only | Print | Product List | Glossary On
Versions: 1 2 3 4 5 6 7 8 9 10 11 12 13 14 15 16 17 18 19 20 21 22 23 24 25 26 27 28 29 30 31 32 33 34 35 36 37 38 39 40 41 42 43 44 45 46 47 48 49 50
000
NZUS93 KARX 272210
HRRWXR

CURRENT HOURLY OBSERVATIONS ACROSS
MUCH OF THE UPPER MISSISSIPPI VALLEY
NATIONAL WEATHER SERVICE LA CROSSE WI
500 PM CDT SAT MAY 27 2017


...SOUTHEAST MINNESOTA...


CITY           SKY/WX    TMP DP  RH WIND       PRES   REMARKS
ROCHESTER      CLOUDY    65  50  58 NW12      29.88F
ROCHESTER/MAYO FAIR      66  47  49 NW6       29.88S
WINONA         CLOUDY    70  48  46 NW3       29.86S
AUSTIN         DRIZZLE   64  46  52 N5        29.88S
ALBERT LEA     PTSUNNY   68  48  49 N6        29.88S
DODGE CENTER   CLOUDY    64  45  48 NW3       29.89S
PRESTON        CLOUDY    65  46  48 N3        29.90R
OWATONNA       CLOUDY    66  41  39 W5        29.88F
FARIBAULT      CLOUDY    70  46  43 W3        29.88F
$$

...ELSEWHERE IN MINNESOTA...


CITY           SKY/WX    TMP DP  RH WIND       PRES   REMARKS
MINNEAPOLIS    CLOUDY    69  48  47 SW7       29.86F
INTNL FALLS    PTSUNNY   73  37  27 W17G25    29.74R
DULUTH         MOSUNNY   72  40  31 NW10      29.80F
RED WING       CLOUDY    70  39  32 W8        29.85F
REDWOOD FALLS  MOSUNNY   73  39  29 W7        29.86F
MANKATO        CLOUDY    69  44  40 SW6       29.88F
WORTHINGTON    PTSUNNY   68  47  46 W8        29.90F
FAIRMONT       CLOUDY    68  49  50 NW7       29.89F
$$

...SOUTHWEST WISCONSIN...


CITY           SKY/WX    TMP DP  RH WIND       PRES   REMARKS
LA CROSSE      CLOUDY    72  51  47 NW9       29.84F
PRAIRIE DU CHI CLOUDY    72  56  57 CALM      29.84R
BOSCOBEL       MOSUNNY   76  57  51 CALM      29.85R
LONE ROCK      CLOUDY    75  56  51 CALM      29.86R
PLATTEVILLE    MOSUNNY   73  63  72 CALM      29.86R
FORT MC COY    MOSUNNY   73  50  44 NW7       29.84F
CAMP DOUGLAS   CLOUDY    75  55  50 W5        29.83F
MAUSTON-NEW LI CLOUDY    74  52  46 W7        29.82F
VIROQUA        FAIR      72  50  46 SW7       29.87R
WIS DELLS      PTSUNNY   74  57  54 CALM      29.83F
$$

...ELSEWHERE IN WISCONSIN...


CITY           SKY/WX    TMP DP  RH WIND       PRES   REMARKS
MILWAUKEE      PTSUNNY   67  53  61 SE13      29.86F
MADISON        CLOUDY    74  60  61 N6        29.83F
GREEN BAY      MOSUNNY   75  59  57 S8        29.82F
EAU CLAIRE     CLOUDY    69  46  43 W10       29.85F
BLACK RVR FLS  FAIR      72  47  40 NW6       29.83F
MEDFORD        CLOUDY    66  48  52 W3        29.85F
WAUSAU         CLOUDY    71  49  45 W15G21    29.83F
WIS RAPIDS     CLOUDY    76  51  41 NW7       29.84F
MARSHFIELD     MOSUNNY   69  51  52 N12       29.84F
RICE LAKE      CLOUDY    70  41  35 W7        29.86F
$$

...NORTHEAST IOWA...


CITY           SKY/WX    TMP DP  RH WIND       PRES   REMARKS
WATERLOO       LGT RAIN  62  58  86 CALM      29.88R FOG
DUBUQUE        CLOUDY    72  60  66 E3        29.86R
DECORAH        CLOUDY    70  50  49 N8        29.87R
MASON CITY     LGT RAIN  64  49  57 N6        29.90R
CHARLES CITY   LGT RAIN  64  52  63 NW5       29.90R
OELWEIN        LGT RAIN  68  55  64 NW10      29.88R
$$

...ELSEWHERE IN IOWA...


CITY           SKY/WX    TMP DP  RH WIND       PRES   REMARKS
DES MOINES     PTSUNNY   68  58  70 N13       29.85S
IOWA CITY      CLOUDY    72  62  71 SE5       29.85S
FORT DODGE     CLOUDY    68  52  56 E12       29.89R
MARSHALLTOWN   LGT RAIN  60  57  89 NE14      29.86S FOG
CEDAR RAPIDS   LGT RAIN  69  66  90 SE3       29.84R
$$

...NORTHERN ILLINOIS...


CITY           SKY/WX    TMP DP  RH WIND       PRES   REMARKS
CHICAGO-OHARE  PTSUNNY   73  56  54 E12       29.86R
CHICAGO-MIDWAY PTSUNNY   72  57  59 E8        29.87R
MOLINE         CLOUDY    74  62  66 E9        29.83F
ROCKFORD       MOSUNNY   78  61  55 CALM      29.86F
PEORIA         CLOUDY    78  62  57 N5        29.84F
$$

NOTE: "FAIR" INDICATES FEW OR NO CLOUDS BELOW 12,000 FEET WITH NO
SIGNIFICANT WEATHER AND/OR OBSTRUCTIONS TO VISIBILITY. WIND
SPEEDS ARE IN MILES-PER-HOUR.




USA.gov is the U.S. government's official web portal to all federal, state and local government web resources and services.